This is the latest recevied weather packets stored in our database for station/object K5NWZ. If no packets are shown the sender has not sent any weather packets the latest 10 day(s).
| Time | Temp. | Humidity | Pressure | Rain* | Wind** | Luminosity | Snow |
|---|---|---|---|---|---|---|---|
| 1777575616 | 8.33° C | 54% | 1029.7 hPa | 0 mm | - | 179 W/m² | - |
| 1777575312 | 8.33° C | 53% | 1029.6 hPa | 0 mm | - | 226 W/m² | - |
| 1777575008 | 8.89° C | 53% | 1029.8 hPa | 0 mm | - | 253 W/m² | - |
| 1777574704 | 8.89° C | 54% | 1029.6 hPa | 0 mm | - | 272 W/m² | - |
| 1777574401 | 8.89° C | 54% | 1029.9 hPa | 0 mm | - | 290 W/m² | - |
| 1777574096 | 7.78° C | 55% | 1029.9 hPa | 0 mm | - | 258 W/m² | - |
| 1777573791 | 8.33° C | 56% | 1029.8 hPa | 0 mm | - | 230 W/m² | - |
| 1777573488 | 8.33° C | 53% | 1030.2 hPa | 0 mm | - | 202 W/m² | - |
| 1777573184 | 7.78° C | 54% | 1030.2 hPa | 0 mm | - | 191 W/m² | - |
| 1777572881 | 7.78° C | 52% | 1030.1 hPa | 0 mm | - | 186 W/m² | - |
| 1777572577 | 8.33° C | 53% | 1030.1 hPa | 0 mm | - | 163 W/m² | - |
| 1777572272 | 8.33° C | 52% | 1030.1 hPa | 0 mm | - | 160 W/m² | - |
| 1777571968 | 8.33° C | 52% | 1030.1 hPa | 0 mm | - | 185 W/m² | - |
| 1777571662 | 7.78° C | 52% | 1030.1 hPa | 0 mm | - | 224 W/m² | - |
| 1777571361 | 8.33° C | 53% | 1030.2 hPa | 0 mm | - | 245 W/m² | - |
| 1777571056 | 8.33° C | 51% | 1030.1 hPa | 0 mm | - | 254 W/m² | - |
| 1777570752 | 7.78° C | 54% | 1030.3 hPa | 0 mm | - | 248 W/m² | - |
| 1777570449 | 7.78° C | 54% | 1030.3 hPa | 0 mm | - | 212 W/m² | - |
| 1777570145 | 8.33° C | 52% | 1030.4 hPa | 0 mm | - | 176 W/m² | - |
| 1777569841 | 7.78° C | 52% | 1030.4 hPa | 0 mm | - | 188 W/m² | - |
| 1777569537 | 7.78° C | 53% | 1030.4 hPa | 0 mm | - | 195 W/m² | - |
| 1777569233 | 7.78° C | 52% | 1030.5 hPa | 0 mm | - | 181 W/m² | - |
| 1777568930 | 8.33° C | 52% | 1030.5 hPa | 0 mm | - | 171 W/m² | - |
| 1777568626 | 8.33° C | 51% | 1030.4 hPa | 0 mm | - | 184 W/m² | - |
| 1777568324 | 8.89° C | 50% | 1030.5 hPa | 0 mm | - | 251 W/m² | - |
* Rain latest hour (hover to see other rain measurements)
** Current wind speed in m/s (hover to see current wind gust speed)